Welcome to the New NWS' Forecast!
Most changes are behind the scenes, but click here for differences you might notice.

Regional Weather Roundup (RWR)

Issued by Gray - Portland, ME (GYX)

                            
089 
ASUS41 KGYX 162305
RWRGYX
WEATHER ROUNDUP FOR MAINE AND NEW HAMPSHIRE
NATIONAL WEATHER SERVICE GRAY ME
700 PM EDT THU AUG 16 2018

MEZ002-005-006-010-012-015-018-020-021-024-026-027-029-170000-
MAINE
  
CITY           SKY/WX    TMP DP  RH WIND       PRES   REMARKS
PORTLAND       FAIR      79  60  52 N7        30.00R                  
SANFORD        FAIR      78  55  44 NW5       30.02R                  
BAR HARBOR     FAIR      74  57  55 N5        30.00R                  
WISCASSET      FAIR      77  58  51 CALM      30.02R                  
ROCKLAND       FAIR      76  57  51 N3        30.00R                  
FRYEBURG       FAIR      77  54  44 VRB3      30.03R                  
LEWISTONAUBURN FAIR      76  58  53 N10       30.02R                  
AUGUSTA        FAIR      75  55  49 NW8       30.03R                  
WATERVILLE     FAIR      73  56  54 N6        30.00R                  
BANGOR         FAIR      74  54  49 NW7       30.02R                  
GREENVILLE       N/A     65  52  62 NW6       30.04R                  
MILLINOCKET    FAIR      71  54  54 N5        30.03R                  
HOULTON        FAIR      67  57  70 N5        30.00R                  
PRESQUE ISLE   FAIR      66  55  67 NW8       30.04R                  
FRENCHVILLE    FAIR      66  48  52 NW9       30.05R                  
CARIBOU        FAIR      68  52  56 NW3       30.03R                  
$$

NHZ002-005-008-009-011-012-014-170000-
NEW HAMPSHIRE
  
CITY           SKY/WX    TMP DP  RH WIND       PRES   REMARKS
PORTSMOUTH     CLEAR     81  60  48 N9        29.99R                  
ROCHESTER      FAIR      77  62  59 NW5       30.01R                  
MANCHESTER     NOT AVBL                                               
CONCORD        FAIR      81  62  52 N5        30.01S                  
LACONIA        FAIR      78  59  51 NW5       30.04R                  
PLYMOUTH       FAIR      76  56  50 CALM      30.03S                  
BERLIN         FAIR      73  55  53 NW5       30.06S                  
WHITEFIELD     FAIR      73  54  51 W3        30.06S                  
JAFFREY        NOT AVBL                                               
LEBANON        FAIR      81  62  52 N5        30.03R                  
MT WASHINGTON  PTCLDY    48  46  93 NW37        N/A                   
$$

VTZ005-007-008-170000-
VERMONT
  
CITY           SKY/WX    TMP DP  RH WIND       PRES   REMARKS
ST JOHNSBURY     N/A     73  53  49 MISG      30.04R                  
MONTPELIER     FAIR      73  57  57 NW5       30.10S                  
BURLINGTON     FAIR      77  55  46 N6        30.04S                  
$$

MAZ007-012-024-CTZ003-RIZ002-NYZ038-NYZ072-170000-
SOUTHERN NEW ENGLAND AND NY
  
CITY           SKY/WX    TMP DP  RH WIND       PRES   REMARKS
BOSTON         FAIR      87  61  41 N9        29.99R                  
WORCESTER      FAIR      80  69  69 W6        30.06R                  
NANTUCKET      FAIR      77  73  87 W14       30.00S                  
PROVIDENCE     FAIR      85  70  60 W9        30.01R                  
HARTFORD       FAIR      85  69  58 W8        30.02R                  
ALBANY         FAIR      84  68  58 NW6       30.02S                  
NEW YORK CITY  FAIR      90  64  42 W9        30.02S HX  91           
$$

ANZ081-ANZ082-ANZ150-NHZ014-MEZ023>029-170000-
COASTAL MARINE OBSERVATIONS
  
STATION/POSITION TIME  TEMP    WIND        PRES    WAVE
                       AIR SEA DIR/SP/G            HT/PER
                 (UTC) (F)     (DEG/KT/KT) (MB)    (FT/S)
MOUNT DESERT ROC 2300   71     300/  9/  9 1015.8R
MATINICUS ROCK   2200   75     280/  1/  1 1015.2R
ISLE OF SHOALS   2200   81     320/ 12/ 12 1015.0R
JEFFREYS LEDGE   2236      71                N/A     1/ 8
$$

.............KEY..............
   WCI - WIND CHILL
   TC  - TEMPERATURE IN CELSIUS
   VSB - VISIBILITY IN MILES
   HX  - HEAT INDEX
   FAIR- INDICATES FEW OR NO CLOUDS BELOW 12,000 FT, WITH NO 
         SIGNIFICANT WEATHER AND/OR OBSTRUCTIONS TO VISIBILITY.